Location: Ch�ze
(42.9000°N, 0.0333°W)
Time: 18:57:39
(UTC+00:00)

USA 267 - Pass Details

Date: 24 January 2021
Orbit: 1099 x 1108 km, 123.0° (Epoch: 06 March)

Event Time Altitude Azimuth Distance (km) Brightness Sun altitude
Exits shadow 18:41:57 23° 108° (ESE) 2,149 4.3 -18.1°
Maximum altitude 18:43:08 24° 124° (SE) 2,094 4.3 -18.3°
Drops below altitude 10° 18:48:13 10° 176° (S) 2,951 5.6 -19.2°
Sets 18:51:14 0° 190° (S) 3,906 6.4 -19.8°
